DW1920 Weather Reports


time (UTC)temp
C
wind
direction
speed
KPH
gust
KPH
rain 1hr
cm
rain 24hr
cm
rain mn
cm
humidity
%
barometer
mb
20260508081003 6 293 4.8 9.7 0.00 0.03 0.00 67 1005.0
20260508080004 6 314 4.8 8.0 0.00 0.03 0.00 66 1004.9
20260508075003 6 7 0.0 6.4 0.00 0.03 0.00 63 1004.9
20260508074003 6 332 3.2 6.4 0.00 0.03 0.00 62 1004.9
20260508073002 7 338 3.2 8.0 0.00 0.03 0.00 61 1004.7
20260508072003 7 314 3.2 12.9 0.00 0.03 0.00 60 1004.7
20260508071002 7 320 6.4 17.7 0.00 0.03 0.00 60 1004.7
20260508070003 7 300 11.3 19.3 0.00 0.03 0.00 60 1004.6
20260508065003 7 290 9.7 22.5 0.00 0.05 0.00 60 1004.6
20260508064002 7 298 14.5 22.5 0.00 0.05 0.00 59 1004.7
20260508063004 7 315 9.7 20.9 0.00 0.05 0.00 60 1004.7
20260508062002 7 302 11.3 16.1 0.00 0.05 0.00 59 1004.7
20260508061003 7 322 11.3 27.4 0.00 0.05 0.00 59 1004.8
20260508060003 7 318 8.0 22.5 0.00 0.05 0.00 58 1004.8
20260508055003 7 312 14.5 20.9 0.00 0.05 0.00 58 1004.9
20260508054003 7 326 11.3 17.7 0.00 0.05 0.00 58 1005.1
20260508053003 7 329 8.0 22.5 0.00 0.05 0.00 59 1005.2
20260508051003 7 290 11.3 20.9 0.00 0.13 0.00 61 1005.1
20260508050003 7 313 8.0 12.9 0.00 0.15 0.00 61 1005.2
20260508045003 7 329 3.2 16.1 0.00 0.15 0.00 60 1005.4
20260508044003 8 321 6.4 16.1 0.00 0.23 0.00 61 1005.5
20260508043024 8 322 4.8 14.5 0.00 0.33 0.00 62 1005.5
20260508042003 8 327 3.2 17.7 0.00 0.41 0.00 61 1005.4
20260508041003 8 312 8.0 14.5 0.00 0.41 0.00 58 1005.5
20260508040003 8 322 6.4 12.9 0.00 0.41 0.41 56 1005.5
20260508035003 8 343 6.4 11.3 0.00 0.41 0.41 55 1005.7
20260508034002 8 352 9.7 14.5 0.00 0.41 0.41 56 1005.6
20260508033003 9 340 9.7 19.3 0.00 0.41 0.41 56 1005.5
20260508032003 9 325 9.7 19.3 0.00 0.41 0.41 57 1005.5
20260508031003 9 319 9.7 19.3 0.00 0.41 0.41 54 1005.5
20260508030003 9 330 4.8 16.1 0.00 0.41 0.41 54 1005.7
20260508025003 9 350 6.4 16.1 0.00 0.41 0.41 54 1005.5
20260508024003 9 342 11.3 22.5 0.00 0.41 0.41 55 1005.3
20260508023002 10 330 9.7 19.3 0.00 0.41 0.41 54 1005.0
20260508022003 10 333 11.3 20.9 0.00 0.41 0.41 53 1005.1
20260508021002 10 355 6.4 19.3 0.00 0.41 0.41 54 1004.9
20260508020003 10 5 12.9 20.9 0.00 0.41 0.41 54 1004.9
20260508015003 10 351 9.7 19.3 0.00 0.41 0.41 54 1004.8
20260508014023 10 339 12.9 20.9 0.00 0.43 0.41 54 1004.8
20260508013003 10 346 11.3 20.9 0.00 0.43 0.41 56 1004.7
20260508012002 10 347 11.3 25.7 0.00 0.43 0.41 60 1004.7
20260508011024 10 339 9.7 19.3 0.00 0.46 0.41 68 1004.6
20260508010003 9 344 9.7 16.1 0.00 0.51 0.41 75 1004.6
20260508004003 8 329 8.0 12.9 0.00 0.64 0.41 83 1003.8
20260508003003 8 318 6.4 11.3 0.00 0.74 0.41 84 1003.9
20260508002003 8 288 6.4 11.3 0.00 0.81 0.41 85 1003.9
20260508001023 8 279 8.0 11.3 0.00 0.86 0.41 85 1003.8
20260508000003 8 268 6.4 11.3 0.00 0.91 0.41 85 1003.6
20260507235002 8 223 3.2 8.0 0.00 0.94 0.41 85 1003.6
20260507234024 8 226 1.6 12.9 0.00 1.02 0.41 84 1003.7
20260507233024 8 229 4.8 9.7 0.00 1.17 0.41 84 1003.5
20260507232003 9 222 1.6 12.9 0.00 1.37 0.41 84 1003.5
20260507231003 9 251 6.4 17.7 0.00 1.68 0.41 84 1003.1
20260507230024 9 244 4.8 9.7 0.00 1.85 0.41 83 1003.0
20260507225002 9 240 3.2 11.3 0.00 1.98 0.41 83 1003.0
20260507224003 9 244 8.0 20.9 0.00 2.16 0.41 83 1002.9
20260507223002 10 205 17.7 24.1 0.00 2.46 0.41 83 1002.6
20260507222003 10 216 11.3 19.3 0.00 2.74 0.41 84 1002.4
20260507221003 9 233 8.0 19.3 0.00 2.90 0.41 84 1002.4
20260507220002 10 230 9.7 24.1 0.00 3.12 0.41 82 1002.2
20260507215003 10 219 19.3 25.7 0.00 3.23 0.41 84 1002.2
20260507214003 10 216 19.3 27.4 0.00 3.28 0.41 83 1002.3
20260507213003 10 214 19.3 29.0 0.00 3.35 0.41 83 1002.3
20260507212003 10 216 19.3 27.4 0.00 3.38 0.41 82 1002.3
20260507211003 10 217 22.5 35.4 0.00 3.40 0.41 81 1002.3
20260507210003 10 212 20.9 30.6 0.00 3.45 0.41 81 1002.3
20260507205003 10 214 20.9 30.6 0.00 3.51 0.41 82 1002.2
20260507204003 10 215 20.9 29.0 0.00 3.53 0.41 82 1002.0
20260507203003 10 215 19.3 30.6 0.00 3.56 0.41 82 1002.0
20260507202002 10 215 20.9 32.2 0.00 3.56 0.41 82 1002.1
20260507201003 10 209 20.9 33.8 0.00 3.58 0.41 82 1002.2
20260507200024 10 216 20.9 32.2 0.00 3.61 0.41 82 1002.3
20260507195002 10 214 22.5 32.2 0.00 3.61 0.41 82 1002.3
20260507194003 10 206 25.7 32.2 0.00 3.61 0.41 80 1002.4
20260507193003 11 203 25.7 35.4 0.00 3.61 0.41 79 1002.5
20260507192003 11 204 29.0 35.4 0.00 3.61 0.41 78 1002.4
20260507191003 11 217 19.3 30.6 0.00 3.61 0.41 80 1002.5
20260507190004 11 215 19.3 27.4 0.00 3.61 0.41 80 1002.7
20260507185003 11 218 17.7 27.4 0.00 3.61 0.41 82 1002.7
20260507184024 11 217 11.3 19.3 0.00 3.61 0.41 83 1002.9
20260507183003 11 211 14.5 19.3 0.00 3.61 0.41 83 1003.0
20260507182003 11 215 12.9 25.7 0.00 3.61 0.41 83 1003.1
20260507180003 11 222 17.7 27.4 0.00 3.61 0.41 84 1003.1
20260507175002 11 222 22.5 29.0 0.00 3.61 0.41 85 1003.4
20260507174003 10 219 17.7 29.0 0.00 3.61 0.41 86 1003.6
20260507173004 10 221 20.9 27.4 0.00 3.61 0.41 86 1003.3
20260507172002 10 216 19.3 29.0 0.00 3.61 0.41 86 1003.3
20260507171003 11 221 14.5 25.7 0.00 3.61 0.41 86 1003.3
20260507170002 10 219 16.1 24.1 0.00 3.61 0.41 85 1003.4
20260507165003 11 217 17.7 24.1 0.00 3.61 0.41 84 1003.5
20260507164003 11 218 14.5 20.9 0.00 3.61 0.41 85 1003.5
20260507163045 11 225 17.7 22.5 0.00 3.61 0.41 85 1003.6
20260507162003 11 214 14.5 19.3 0.00 3.61 0.41 85 1004.0
20260507161025 11 226 17.7 22.5 0.00 3.61 0.41 86 1004.0
20260507160003 11 225 16.1 19.3 0.00 3.61 0.41 86 1004.1
20260507155003 11 221 11.3 17.7 0.00 3.61 0.41 87 1004.1
20260507154002 10 222 14.5 22.5 0.00 3.61 0.41 86 1004.2
20260507153003 10 219 17.7 24.1 0.00 3.61 0.41 87 1004.2
20260507152023 10 225 16.1 20.9 0.00 3.61 0.41 88 1004.2
20260507151003 10 219 11.3 16.1 0.00 3.61 0.41 87 1004.3
20260507150003 10 219 11.3 17.7 0.00 3.61 0.41 88 1004.3
20260507145024 10 218 11.3 16.1 0.00 3.61 0.41 88 1004.4
20260507144024 10 216 12.9 17.7 0.00 3.61 0.41 87 1004.5
20260507143002 10 209 9.7 16.1 0.00 3.61 0.41 87 1004.5
20260507142003 10 189 14.5 17.7 0.00 3.61 0.41 85 1004.5
20260507141024 11 184 14.5 17.7 0.00 3.61 0.41 84 1004.7
20260507140003 11 286 9.7 14.5 0.00 3.61 0.41 86 1004.6
20260507135003 11 297 9.7 17.7 0.00 3.61 0.41 87 1004.6
20260507134002 10 294 11.3 17.7 0.00 3.61 0.41 88 1004.5
20260507133003 10 303 9.7 17.7 0.00 3.61 0.41 89 1004.7
20260507132023 10 287 12.9 19.3 0.00 3.61 0.41 90 1004.8
20260507131003 10 286 12.9 20.9 0.00 3.61 0.41 91 1004.9
20260507130003 10 293 12.9 17.7 0.00 3.61 0.41 92 1005.1
20260507125003 9 286 11.3 19.3 0.00 3.61 0.41 92 1005.2
20260507124003 8 291 11.3 20.9 0.00 3.61 0.41 93 1005.1
20260507123002 8 300 11.3 17.7 0.00 3.61 0.41 94 1004.9
20260507122024 8 301 11.3 17.7 0.00 3.61 0.41 95 1004.9
20260507121024 8 288 11.3 19.3 0.00 3.61 0.41 95 1004.9
20260507120003 8 302 14.5 19.3 0.00 3.61 0.41 95 1004.5
20260507115003 8 294 11.3 17.7 0.00 3.61 0.41 95 1004.7
20260507114003 7 297 9.7 14.5 0.00 3.61 0.41 95 1004.8
20260507113004 8 287 9.7 14.5 0.00 3.61 0.41 95 1005.1
20260507112003 7 312 4.8 12.9 0.00 3.61 0.41 96 1005.1
20260507111002 7 330 4.8 14.5 0.00 3.61 0.41 96 1005.2
20260507110003 7 312 9.7 17.7 0.00 3.61 0.41 96 1005.0
20260507105003 7 294 12.9 16.1 0.00 3.61 0.41 95 1005.4
20260507104003 7 280 9.7 14.5 0.00 3.61 0.41 96 1006.0
20260507103003 7 288 11.3 16.1 0.00 3.61 0.41 95 1005.1
20260507102024 7 299 8.0 14.5 0.00 3.61 0.41 96 1005.0
20260507101002 7 294 11.3 16.1 0.00 3.61 0.41 96 1005.1
20260507100003 7 312 9.7 17.7 0.00 3.61 0.41 96 1004.6
20260507095002 7 303 11.3 17.7 0.03 3.61 0.41 96 1004.7
20260507094003 8 309 11.3 17.7 0.00 3.58 0.38 96 1004.5
20260507093003 8 311 12.9 20.9 0.00 3.58 0.38 96 1004.3
20260507092003 8 309 9.7 19.3 0.00 3.58 0.38 96 1004.6
20260507091003 8 302 11.3 19.3 0.00 3.58 0.38 96 1004.5
20260507090002 8 291 4.8 12.9 0.00 3.58 0.38 96 1004.6
20260507085003 9 317 6.4 11.3 0.00 3.58 0.38 96 1004.3
20260507084002 9 319 4.8 9.7 0.00 3.58 0.38 96 1004.1
20260507083003 9 335 4.8 14.5 0.00 3.58 0.38 96 1004.1
20260507082003 9 318 4.8 12.9 0.00 3.58 0.38 96 1004.3